Location: *
(34.8620°S, 39.3380°E)
Time: 03:51:50
(UTC+00:00)

Daily predictions for brighter satellites

Satellite Brightness Start Highest point End
(mag) Time Altitude Azimuth Time Altitude Azimuth Time Altitude Azimuth
Lacrosse 4 Rocket 4.5 01:19:54 13° ESE 01:19:54 13° ESE 01:21:34 10° E
Lacrosse 5 rocket 4.0 01:39:55 17° NE 01:39:55 17° NE 01:41:00 10° NE
ATLAS 5 CENTAUR R/B 3.5 01:40:09 40° S 01:40:09 40° S 01:44:27 10° SSE
Envisat 4.5 01:33:18 10° NNE 01:36:04 31° NE 01:36:04 31° NE
ATLAS 2A CENTAUR R/B 3.4 01:43:52 36° NNE 01:44:03 36° NNE 01:54:30 10° E
Cosmos 1153 Rocket 4.4 02:04:19 28° S 02:07:58 82° W 02:14:21 10° N
Cosmos 2297 3.6 02:07:24 65° S 02:08:16 85° ESE 02:13:55 10° NNE
Cosmos 2100 Rocket 4.5 02:01:59 10° S 02:08:21 61° E 02:14:39 10° NNE
Gbstr 26 Del rocket 4.4 02:07:40 56° WSW 02:08:31 59° SW 02:16:36 10° SE
Meteor 1-24 Rocket 4.3 02:06:31 10° N 02:11:49 53° E 02:17:03 10° SSE
Cosmos 2369 Rocket 3.6 02:08:25 12° S 02:13:18 36° ESE 02:18:30 10° NE
SJ 16-02 2.4 02:16:07 25° SSE 02:18:21 45° ESE 02:22:35 10° NE
Cosmos 1300 3.1 02:21:49 61° ESE 02:22:01 63° E 02:25:49 10° NNE
Cosmos 1603 3.9 02:19:10 10° NNW 02:24:50 74° ENE 02:30:38 10° SSE
Meteor 2-5 Rocket 3.6 02:19:28 10° N 02:25:09 90° W 02:30:49 10° S
Cosmos 1943 Rocket 2.0 02:24:19 41° SSW 02:26:23 82° WNW 02:31:56 10° NNE
SJ-7 4.3 02:26:51 10° N 02:31:03 76° W 02:31:18 73° WSW
Cosmos 1184 Rocket 3.8 02:28:06 10° N 02:31:14 46° E 02:34:25 10° SSE
CZ-4C R/B 3.9 02:25:01 10° N 02:33:13 52° ENE 02:40:32 10° SE
MOS 1 Rocket 3.0 02:28:55 10° S 02:33:22 73° WSW 02:37:59 10° NNW
Okean O Rocket 4.4 02:30:43 10° ENE 02:33:38 17° ESE 02:36:33 10° SSE
NOAA 11 4.2 02:30:31 10° NNE 02:36:02 82° ESE 02:41:37 10° S
USA 234 4.1 02:34:09 10° SSE 02:39:35 28° SSW 02:40:39 27° SW
USA 290 3.3 02:37:25 10° N 02:40:35 47° ENE 02:43:47 10° SSE
Cosmos 1536 Rocket 3.7 02:36:36 10° NNW 02:40:58 52° W 02:45:26 10° S
SL-16 R/B 4.1 02:44:53 14° SSW 02:44:53 14° SSW 02:46:03 10° SSW
BREEZE-M DEB (TANK) 3.5 02:45:50 23° S 02:46:36 26° SSE 02:49:57 10° E
Meteor 2-11 Rocket 4.4 02:41:32 10° SSW 02:47:41 67° W 02:53:46 10° N
SL-19 R/B 4.3 02:43:22 10° SSE 02:49:24 82° WSW 02:55:02 10° NNW
Lacrosse 4 Rocket 1.5 02:56:16 26° SW 02:58:37 62° WNW 03:02:59 10° NNE
H-2A R/B 4.1 02:55:29 10° NE 02:59:40 27° ESE 03:03:58 10° SSE
Cosmos 1459 Rocket 4.0 02:54:04 10° SSW 03:00:05 54° W 03:05:57 10° NNW
deb Chang Zheng 4 3.4 02:56:05 10° NNE 03:00:22 86° WNW 03:04:42 10° SSW
Cosmos 1939 Rocket 3.1 02:56:57 10° NNE 03:00:53 70° ESE 03:04:49 10° S
Cosmos 2173 Rocket 4.2 02:59:36 10° SSW 03:05:39 48° W 03:11:41 10° NNW
USA 276 3.4 03:05:58 24° SSW 03:05:58 24° SSW 03:08:33 10° SSE
COSMO-SKYMED 1 3.8 03:02:22 10° SSE 03:06:38 46° E 03:10:49 10° N
CZ-4 R/B 4.4 03:05:40 10° E 03:07:10 12° ESE 03:08:40 10° SE
Cosmos 389 Rocket 3.2 03:09:05 29° W 03:09:12 29° W 03:12:14 10° NNW
Cosmos 2228 3.1 03:05:35 10° S 03:10:03 82° E 03:14:28 10° N
Cosmos 468 Rocket 3.9 03:05:15 10° NNW 03:10:22 64° WSW 03:15:32 10° S
CZ-4B DEB 4.2 03:05:07 10° N 03:10:35 72° WNW 03:16:10 10° SSW
Cosmos 2123 Rocket 4.1 03:09:58 10° NNW 03:15:58 50° W 03:22:05 10° S
AQUARIUS 4.2 03:14:20 10° N 03:18:47 62° W 03:23:19 10° SSW
Cosmos 1943 3.7 03:14:19 10° NW 03:19:34 38° WSW 03:24:50 10° S
Cosmos 2016 Rocket 4.0 03:14:15 10° SSW 03:20:19 56° W 03:26:16 10° NNW
OAO 2 Rocket 3.4 03:16:14 16° WNW 03:20:20 83° N 03:25:34 10° E
SME Rocket 4.2 03:15:56 10° SSE 03:20:51 75° ENE 03:28:13 10° N
Cosmos 1455 2.8 03:17:21 10° S 03:21:15 60° E 03:25:03 10° NNE
ATLAS 5 CENTAUR R/B 4.2 03:21:44 14° SW 03:23:30 15° SW 03:27:09 10° S
Hubble Space Telescope 3.2 03:22:21 10° NNW 03:25:13 18° NNE 03:28:05 10° ENE
Cosmos 990 Rocket 4.0 03:22:58 10° SSW 03:28:19 90° ESE 03:33:34 10° NNE
SMAP 3.5 03:25:15 10° NNW 03:29:38 40° W 03:34:05 10° SSW
Cosmos 1656 Rocket 3.6 03:24:58 10° SSW 03:30:33 76° WNW 03:36:08 10° NNE
CENTAUR R/B 4.3 03:29:41 10° S 03:33:27 18° SE 03:37:01 10° E
CZ-2C R/B 3.6 03:34:21 10° SSE 03:39:55 57° E 03:45:26 10° N
Cosmos 1606 Rocket 3.7 03:36:12 10° SSW 03:40:39 55° W 03:45:02 10° N
SL-24 DEB 4.3 03:38:50 10° N 03:43:30 90° ESE 03:48:18 10° S
Cosmos 841 Rocket 3.5 03:40:21 10° NNW 03:45:36 69° WSW 03:50:54 10° SSE
YAOGAN 1 4.3 03:42:29 10° NE 03:46:26 35° ESE 03:50:25 10° S
Meteor 1-4 Rocket 2.8 03:42:57 10° S 03:46:34 72° E 03:50:05 10° NNE
Cosmos 1814 Rocket 4.3 03:41:22 10° N 03:46:43 77° ENE 03:52:08 10° SSE
CZ-4B R/B 3.3 03:45:12 10° N 03:50:34 58° W 03:56:07 10° SSW
Cosmos 1703 3.3 03:48:00 10° NNW 03:51:52 62° W 03:55:49 10° S
H-2A R/B 2.0 03:48:14 10° SSE 03:52:31 88° WSW 03:56:39 10° NNW
SKYMED 2 3.9 03:50:24 10° S 03:54:37 46° WSW 03:58:47 10° NNW
Cosmos 2369 Rocket 3.2 03:52:26 10° SW 03:57:05 26° WNW 04:01:44 10° NNW
